Theta_e
352 353 353 353 354 354 354 354 354 354 354 353 353 352 351 350 350 349 349 349 348 348 349 349 351 350 348 347 348 355 359 363 365 366 367 368 368 368 368 368 367 366 367 367 367 367 367 366 366 365 363 360 359 359 358 359 358 358 358 358 359 359 359 359 358 359 360 360 360 359 359 359 359 358 358 358 357 357 357 357 356 357 357 357 356
353 353 353 354 355 355 355 354 353 354 354 352 353 352 351 350 350 349 348 348 348 348 350 347 345 345 346 347 345 353 358 362 365 366 366 367 368 370 369 367 366 366 366 366 367 367 367 367 366 364 360 360 359 359 358 358 357 357 358 359 359 359 359 358 358 359 359 359 359 359 359 359 358 358 357 357 357 357 356 357 357 357 357 357 356
354 353 354 354 355 355 354 354 353 354 354 353 354 353 352 351 350 349 349 349 348 349 348 347 347 343 347 345 344 352 356 362 365 366 366 367 368 370 368 369 366 366 366 367 367 367 365 365 364 360 360 360 359 359 359 357 356 357 358 359 360 360 360 360 360 359 359 359 359 359 359 358 358 357 357 357 357 357 356 357 357 357 357 356 356
355 354 354 354 354 354 354 353 352 353 353 353 353 353 352 351 351 350 350 349 349 348 349 347 345 342 343 342 345 351 354 361 365 367 367 367 367 369 369 370 368 367 367 367 367 367 364 363 362 360 360 360 359 359 357 357 356 357 357 359 360 360 360 361 360 360 360 359 359 359 359 358 358 357 357 357 357 357 357 357 356 356 356 357 356
356 355 356 356 356 355 354 354 353 353 353 353 353 353 352 350 349 349 348 348 347 348 349 347 343 342 342 341 345 349 353 361 365 366 367 367 367 368 369 370 370 366 368 367 367 366 366 365 363 358 358 359 359 357 357 356 356 357 357 357 360 360 360 361 360 359 359 359 359 359 358 358 358 358 357 357 357 356 356 356 356 356 356 356 356
356 356 356 356 356 356 355 354 354 353 353 353 352 351 350 348 347 347 349 350 346 347 345 343 342 341 341 341 344 351 354 359 363 365 367 367 367 368 368 369 369 370 369 367 366 366 364 362 362 360 360 359 359 358 358 357 356 356 356 356 360 360 360 361 360 360 360 359 359 358 358 358 358 357 357 356 356 356 355 356 356 356 356 355 356
356 356 356 356 355 355 355 354 354 354 353 353 352 351 349 348 347 346 346 346 345 346 346 344 340 340 341 349 343 349 355 358 361 364 365 367 367 367 368 368 368 368 369 369 368 366 364 363 361 359 359 357 357 357 357 356 355 355 355 356 356 359 360 361 361 360 359 359 358 358 358 358 357 356 356 356 356 356 356 356 356 356 356 355 355
357 357 356 356 355 355 355 355 354 354 353 353 352 350 349 347 348 347 345 344 348 345 346 344 342 340 340 349 348 353 355 359 360 362 364 366 366 367 367 368 367 367 368 367 368 368 365 362 361 360 359 360 359 357 357 356 355 356 355 355 355 357 359 360 361 360 359 359 359 358 358 357 357 356 357 356 356 356 356 355 355 355 355 355 355
357 358 357 356 356 355 356 355 355 353 352 351 350 351 348 347 348 351 348 345 344 343 344 345 341 342 340 343 346 354 354 359 361 362 363 364 365 366 367 367 367 368 368 366 367 368 364 363 362 360 359 358 358 357 357 356 355 355 355 354 354 355 358 360 360 359 359 359 359 359 358 357 357 357 356 356 356 355 355 354 354 353 354 355 355
358 358 357 357 357 356 356 355 353 353 352 350 349 348 348 347 347 348 349 347 344 343 342 342 337 337 341 343 348 351 353 358 362 365 363 362 363 365 366 367 366 366 366 366 365 366 366 364 363 362 361 360 358 356 356 356 356 355 354 355 354 353 355 358 358 358 359 358 358 358 357 357 357 357 356 355 355 354 353 353 353 353 352 353 354
358 358 357 357 357 356 355 354 353 352 351 349 348 348 348 347 345 347 349 350 347 346 345 342 339 347 345 345 346 349 352 355 361 364 362 362 362 364 365 366 365 365 366 366 365 365 365 364 364 364 363 360 358 356 355 355 354 355 355 353 354 353 354 358 357 358 358 358 359 358 358 357 356 354 354 354 354 353 353 353 352 352 352 352 352
358 358 357 357 356 355 353 353 353 352 349 348 347 346 346 347 347 345 346 347 350 350 344 346 344 346 352 346 347 346 346 353 356 358 360 361 362 366 365 365 364 364 365 364 364 364 364 363 364 362 362 361 360 358 356 355 355 354 353 354 352 352 353 357 357 357 358 358 358 357 357 357 356 355 353 351 351 352 352 351 351 351 350 350 350
359 358 357 358 357 355 354 354 354 354 352 350 350 348 347 347 348 353 350 348 343 341 341 341 341 345 342 342 348 351 355 353 352 353 356 358 360 363 364 364 364 363 365 364 364 364 363 362 363 362 361 362 362 360 357 356 355 355 354 353 353 352 351 352 355 356 356 356 356 356 356 355 355 353 352 353 353 353 351 351 351 351 351 351 351
359 358 358 356 355 355 355 355 355 356 356 355 353 355 353 350 347 345 346 345 341 343 339 339 337 335 339 339 346 345 350 348 350 351 353 358 358 361 363 363 363 364 364 364 363 363 363 362 362 361 361 361 361 361 360 358 358 355 354 353 352 352 351 351 351 353 354 354 355 355 355 355 354 354 354 353 353 353 353 353 353 353 353 352 351
355 359 357 357 356 355 355 356 357 357 357 353 351 350 350 349 347 345 344 343 345 344 341 339 340 342 342 342 335 336 346 346 347 349 351 354 357 358 360 361 361 363 364 364 363 362 362 361 361 361 360 360 360 360 359 357 357 356 355 354 353 352 351 350 350 351 352 354 354 354 354 353 353 354 353 353 353 353 353 353 352 352 352 352 352
355 355 358 357 357 356 356 355 356 357 354 352 350 348 349 350 348 347 345 342 340 340 354 342 344 340 338 335 336 334 331 338 339 341 346 352 354 355 358 357 359 361 363 363 362 362 362 362 360 361 360 359 359 359 359 358 357 356 356 355 354 353 352 350 350 351 351 351 353 353 353 352 352 352 352 352 353 353 352 352 352 352 352 351 351
355 355 357 357 357 357 356 356 355 355 354 351 348 347 347 349 347 349 344 343 339 341 345 347 343 343 343 334 330 331 332 334 334 340 343 346 349 353 355 356 357 357 360 361 363 363 362 362 361 361 360 359 358 358 359 358 358 359 357 356 355 354 353 352 351 351 351 351 352 351 351 351 351 351 352 352 352 352 352 351 351 352 351 351 351
355 355 356 359 357 357 357 356 355 356 355 351 348 347 349 350 348 347 344 342 345 341 339 346 349 351 341 344 344 337 334 334 334 337 341 347 346 350 353 357 356 356 357 358 360 361 363 362 362 361 361 360 358 358 357 357 359 357 359 358 356 355 354 353 352 352 351 351 351 350 350 351 350 350 350 350 350 351 351 351 350 351 351 350 350
355 355 356 358 358 357 356 356 355 355 358 354 349 348 348 348 350 346 345 350 343 343 340 340 342 343 345 340 343 342 341 337 335 334 334 342 341 344 347 351 353 354 355 356 358 359 360 362 362 362 362 362 360 357 357 357 356 357 356 357 357 356 356 354 353 353 352 351 351 350 349 349 349 349 350 350 349 350 350 350 351 350 349 348 348
354 355 356 356 359 358 357 356 355 355 355 354 349 348 348 350 353 348 349 349 344 343 341 337 343 341 350 343 345 349 342 340 338 337 336 333 337 337 344 346 349 352 353 353 355 357 357 359 361 362 362 361 361 359 357 356 357 357 356 358 357 357 356 355 354 354 353 352 351 350 349 349 348 348 349 349 349 349 349 349 349 349 349 349 347
354 354 355 356 359 358 357 355 354 354 360 355 351 349 347 346 349 347 347 348 344 344 346 342 335 338 341 341 342 344 342 340 337 341 341 333 333 333 338 342 345 348 350 352 353 354 357 359 360 363 362 362 361 360 358 357 355 356 356 357 358 358 356 356 356 355 354 353 352 351 350 349 348 348 347 348 349 348 348 348 349 349 348 349 348
352 354 354 355 355 358 357 355 354 353 359 358 353 351 349 348 346 345 346 347 346 351 343 343 339 340 340 342 342 342 339 337 337 337 336 336 336 335 336 336 338 343 346 347 350 353 355 357 359 361 361 362 362 361 361 360 358 356 355 357 358 358 357 356 357 356 355 354 353 351 350 350 349 348 348 347 347 348 348 347 348 348 347 347 347
350 353 353 354 354 356 356 355 354 357 359 358 355 351 349 347 346 347 352 348 347 350 353 350 345 344 341 342 343 339 340 336 339 336 337 336 335 335 336 339 338 337 343 345 349 349 353 357 357 357 361 361 362 361 361 361 361 358 357 357 359 359 358 357 357 357 356 356 354 353 351 350 350 349 348 348 347 346 346 346 346 345 346 346 346
351 351 352 352 354 353 355 355 355 354 354 357 356 354 353 349 347 346 347 348 349 354 351 350 347 345 343 341 342 340 339 339 338 340 338 340 337 338 336 339 337 338 341 346 349 349 351 352 357 356 359 360 361 361 361 361 361 362 361 359 359 359 358 357 358 358 357 357 356 354 353 351 351 350 349 348 348 347 346 345 344 343 343 345 346
349 349 350 351 353 352 351 351 352 354 354 354 355 355 354 351 349 348 350 350 350 351 349 348 348 345 344 344 342 341 341 341 340 340 339 340 339 338 339 337 338 338 341 345 349 355 352 353 353 357 357 360 361 362 360 360 360 362 364 360 359 359 358 358 358 359 358 357 357 356 354 353 352 351 350 349 348 348 346 345 344 344 343 343 343
347 349 351 351 352 352 352 352 353 353 355 354 354 354 354 352 351 351 349 351 351 350 349 349 348 347 346 345 345 343 343 342 342 340 339 339 338 338 341 339 337 337 339 348 350 347 358 356 356 357 358 358 360 362 362 361 360 361 363 362 359 358 357 357 359 359 359 358 358 357 356 354 353 352 351 350 349 348 347 346 344 343 343 344 343
348 350 352 352 352 352 352 352 352 352 353 354 354 354 355 354 354 351 352 350 351 351 349 349 347 348 349 348 347 346 347 347 344 343 342 342 342 342 340 338 338 335 340 344 347 348 348 354 357 360 359 362 362 363 363 362 361 361 362 363 362 356 355 355 357 359 360 359 358 357 357 356 354 353 352 351 350 349 348 346 345 344 343 343 343
350 351 351 352 351 351 353 353 353 353 353 353 354 355 354 353 352 353 351 353 353 352 352 351 350 351 350 351 350 349 350 348 346 345 345 344 344 344 342 341 337 336 336 336 339 344 350 352 356 359 361 362 363 364 363 362 361 362 363 363 363 360 354 353 354 357 359 359 358 358 357 357 355 354 354 352 352 351 350 347 346 345 345 343 343
349 351 351 352 351 351 351 352 353 354 354 354 354 354 354 354 353 352 352 353 357 354 353 352 353 352 352 351 351 351 351 351 349 347 350 350 347 346 344 342 341 338 337 337 339 339 351 351 351 362 361 362 363 363 363 363 363 362 362 363 363 363 355 351 351 353 354 356 356 357 357 357 356 355 354 354 353 352 351 350 348 347 347 345 344
350 350 351 351 351 354 351 351 352 354 354 354 354 354 355 353 352 352 352 353 353 355 355 354 353 353 354 353 353 352 353 352 351 350 351 352 348 347 346 346 345 341 339 336 337 339 344 348 350 353 359 360 360 362 361 362 362 362 362 361 361 361 355 351 350 349 350 350 352 355 357 357 357 356 355 355 354 353 352 352 350 348 348 347 346
351 351 351 350 350 350 351 350 351 353 354 353 354 354 354 353 353 352 352 352 351 351 353 354 353 353 353 353 354 353 354 352 352 351 351 351 351 349 349 347 345 344 341 339 335 343 341 345 346 351 353 357 357 361 361 363 362 361 362 362 360 358 355 355 350 349 348 347 348 350 354 357 357 356 355 355 354 354 353 352 351 350 349 348 347
350 349 349 349 350 349 349 349 349 350 352 353 354 353 352 352 351 350 352 351 350 350 350 351 353 354 353 352 353 354 354 353 353 352 352 352 351 350 349 347 348 345 346 342 338 339 346 343 345 348 350 351 356 357 360 362 362 358 364 364 362 356 358 359 351 348 347 345 345 345 347 351 355 356 356 354 354 354 354 353 353 351 351 349 348
351 350 349 349 349 349 349 350 349 350 351 351 351 352 351 351 350 350 351 351 350 350 351 350 351 352 354 353 353 354 354 352 352 351 351 351 351 351 351 347 346 346 345 344 341 341 345 346 346 348 352 354 355 357 358 360 361 363 359 363 363 360 359 359 358 348 346 345 343 342 342 344 349 354 356 354 354 354 353 353 353 352 351 350 349
351 350 350 349 349 348 348 348 349 349 349 350 350 350 349 349 349 348 348 350 349 349 349 349 349 350 352 353 353 352 353 352 352 350 350 350 349 348 348 346 345 346 347 345 343 343 340 347 349 349 351 356 356 358 358 359 360 362 362 362 362 361 359 359 357 356 346 344 343 341 340 340 343 346 350 351 351 352 351 351 352 351 348 348 346
353 351 350 349 349 349 348 349 349 349 349 348 348 348 348 346 345 346 347 347 347 347 347 347 348 350 350 351 351 352 351 351 351 351 351 350 350 349 348 346 345 345 345 345 345 343 342 345 347 349 353 352 354 358 358 358 359 359 359 360 360 360 359 358 357 356 346 343 342 341 339 339 339 340 342 344 347 349 351 351 348 343 342 341 339
352 353 351 351 350 349 349 349 348 348 346 344 346 347 347 344 342 343 343 343 343 344 344 344 345 346 347 349 350 352 353 352 352 352 351 351 350 350 344 343 344 343 345 346 345 342 343 342 348 349 351 349 350 351 353 352 349 352 354 357 359 358 359 356 355 354 350 343 341 340 339 338 337 337 337 338 340 342 343 341 339 338 336 335 335
353 352 354 353 349 347 347 346 346 346 346 347 347 349 348 346 345 344 345 344 345 345 346 346 347 346 345 345 347 350 352 349 351 350 350 348 345 346 343 344 344 344 344 345 344 343 342 341 345 347 349 347 349 351 351 349 352 352 353 354 355 356 355 355 355 354 348 345 342 340 339 339 338 336 335 334 335 336 335 336 336 335 334 333 332
352 354 351 351 349 347 348 348 347 347 347 347 348 348 348 347 347 346 346 345 346 346 347 347 346 346 343 344 346 348 347 348 349 350 350 346 345 346 345 344 344 343 342 343 344 344 343 342 344 344 347 346 347 347 350 350 349 349 351 353 354 353 353 352 352 352 353 353 352 350 342 339 338 336 335 334 333 333 333 334 334 333 332 331 330
351 346 345 346 348 350 350 350 349 348 348 347 348 348 348 349 349 348 347 346 345 346 346 346 346 346 346 346 346 345 344 345 345 346 345 344 347 347 347 345 344 343 342 343 343 343 342 342 342 343 344 346 345 344 349 350 349 348 346 346 348 351 352 350 350 351 352 352 349 347 349 348 345 345 338 333 332 332 332 332 333 334 334 332 329
346 345 346 347 348 349 348 348 349 349 347 347 347 348 349 349 349 348 347 346 346 346 346 345 345 345 346 346 344 344 345 346 346 347 347 346 345 344 344 345 344 344 343 343 342 341 341 340 341 343 343 344 346 347 347 346 345 346 347 345 343 345 347 349 348 347 350 351 350 351 348 347 346 344 340 337 335 334 334 334 334 336 337 334 331
345 347 349 349 348 346 346 347 348 348 347 346 347 347 347 348 349 347 347 347 347 345 345 345 344 344 345 346 347 345 348 351 353 352 350 349 344 342 342 343 344 344 344 343 343 342 340 340 340 342 341 340 341 341 341 342 342 343 346 346 343 344 344 344 347 350 350 348 349 348 348 350 349 349 350 347 346 339 339 337 338 338 337 335 332
345 346 347 349 349 348 346 347 348 348 347 349 350 351 351 350 348 349 349 349 347 346 345 344 344 344 346 347 348 351 353 353 353 352 352 351 347 345 342 342 343 343 342 341 340 341 340 339 339 340 339 338 340 342 341 344 346 346 344 343 340 342 343 342 344 347 350 348 346 345 348 350 349 349 348 347 349 347 345 344 342 339 336 332 331
345 346 346 345 347 349 348 347 346 346 348 349 350 344 344 349 352 349 349 348 348 347 346 344 343 345 346 347 347 348 349 348 348 349 350 350 351 351 350 349 348 346 342 339 338 340 340 340 341 340 339 338 340 342 342 343 344 344 342 342 342 341 339 336 335 342 350 348 346 343 344 349 351 345 347 348 348 348 347 346 338 334 332 331 330
344 347 346 346 347 348 347 347 346 346 347 350 341 341 346 345 349 350 350 348 348 347 347 347 348 347 347 348 348 347 346 347 347 346 347 350 350 350 350 349 348 348 348 344 342 342 341 340 339 339 339 339 340 341 341 341 342 343 343 342 341 339 338 337 337 336 344 347 344 341 341 349 351 346 345 346 348 348 348 341 334 332 331 330 330
346 347 346 347 346 346 345 344 344 345 346 348 336 340 339 340 342 349 349 348 346 347 347 347 347 347 347 347 348 347 345 348 347 343 343 344 347 349 348 346 345 346 342 341 343 344 343 339 338 339 341 341 339 341 343 344 345 340 342 340 341 340 340 338 339 340 344 346 342 340 338 344 348 343 341 345 347 348 348 338 334 332 331 330 329
345 345 345 344 345 344 344 343 343 343 343 346 336 337 337 337 339 345 347 347 346 345 344 344 345 345 345 343 345 347 343 342 342 343 342 341 343 345 345 343 343 344 345 344 344 343 343 341 339 337 341 342 339 341 344 344 341 338 337 337 339 337 337 337 340 342 344 348 342 339 336 339 342 341 340 344 346 347 348 340 331 330 330 329 328
344 343 344 343 344 344 345 344 342 341 343 340 336 336 332 333 336 346 346 345 344 344 344 345 346 346 345 345 344 344 340 340 341 342 342 341 342 343 343 342 342 342 342 343 344 344 344 343 341 340 341 341 339 338 338 339 338 338 338 338 339 338 338 340 340 342 343 348 345 339 331 337 343 340 340 342 344 345 347 336 329 328 328 328 327
343 343 342 342 343 342 342 343 342 343 344 336 334 333 330 331 344 346 343 343 342 343 343 344 346 346 345 346 346 346 344 341 344 346 347 346 343 342 341 342 342 341 342 344 336 337 340 337 337 336 336 337 335 336 338 338 339 339 338 338 338 337 334 332 331 334 334 341 341 338 335 336 341 338 339 343 346 343 346 347 336 330 327 326 325
341 340 340 342 343 341 342 342 341 341 342 334 325 325 326 330 341 343 343 343 342 342 342 343 343 344 346 350 348 347 346 345 345 335 337 343 342 341 342 341 339 338 337 335 334 333 330 326 326 327 327 326 325 324 323 324 331 335 334 333 333 333 331 330 331 332 334 337 330 331 332 331 339 337 336 340 342 340 344 346 347 333 324 324 323
340 341 342 341 342 342 342 342 342 342 342 336 323 322 324 330 342 340 340 339 339 338 337 340 341 342 344 349 347 343 343 341 330 330 335 342 338 336 335 334 336 334 332 330 330 330 331 330 328 328 327 328 329 330 331 330 329 331 334 334 338 335 331 330 329 330 332 334 330 331 329 332 336 336 334 336 337 341 344 343 338 335 326 326 324
343 342 344 342 341 341 343 343 348 346 342 335 321 322 322 326 336 338 339 338 336 334 334 337 338 339 339 340 343 339 339 333 322 324 330 339 336 335 334 332 331 331 330 327 328 329 331 331 332 334 336 336 338 338 339 339 338 335 336 336 337 334 331 331 330 330 328 332 329 332 328 331 330 333 330 328 327 334 335 334 334 335 337 339 337
Wind_Speed
3 3 2 2 2 2 4 4 4 4 4 5 5 5 5 5 4 5 5 5 5 6 5 6 2 0 2 3 3 2 2 4 5 5 4 2 2 5 6 5 4 5 5 6 6 5 5 5 5 6 6 6 6 6 7 7 7 7 7 7 6 6 6 5 5 5 5 4 4 5 5 4 5 5 5 6 5 4 3 3 2 3 2 2 2
4 3 2 3 3 4 5 5 4 4 4 5 5 5 5 5 5 5 5 5 5 5 5 6 4 1 2 3 3 2 2 2 5 5 4 2 2 3 5 4 4 4 4 5 5 6 6 6 6 6 6 6 6 6 6 7 7 7 7 7 7 7 6 5 4 5 5 5 5 5 5 5 5 6 6 7 6 5 4 4 3 3 3 2 2
4 3 2 3 3 5 5 5 4 4 4 5 5 5 5 4 4 5 5 5 5 5 4 5 5 2 2 3 2 3 3 2 3 4 4 4 2 2 3 3 3 4 4 3 4 4 5 6 6 6 5 5 5 6 6 6 6 7 7 8 7 7 7 6 6 5 5 5 6 6 6 7 7 7 7 6 6 5 4 4 4 4 3 3 2
4 4 3 3 4 5 5 5 5 5 4 4 5 6 5 4 5 5 5 5 6 5 4 4 5 3 1 3 2 3 3 3 3 3 4 3 2 2 2 1 3 3 3 3 3 4 4 5 5 5 5 5 5 5 5 6 6 7 7 8 7 7 7 7 6 5 5 6 7 7 7 8 7 7 6 6 5 4 5 5 5 5 4 3 2
4 4 5 4 4 5 5 6 6 5 5 5 6 5 4 4 5 4 4 5 5 5 4 4 4 3 2 3 2 3 3 3 3 3 4 3 3 1 2 1 0 1 2 2 2 2 4 4 4 4 4 5 5 5 5 6 6 6 7 7 7 7 7 7 6 5 6 6 7 7 7 7 7 7 6 6 5 5 5 5 5 5 5 4 4
4 4 4 4 5 5 5 5 6 6 4 4 4 4 4 3 4 5 4 4 5 6 5 7 4 2 2 2 3 3 3 3 3 3 4 3 3 2 2 1 1 0 0 1 2 2 2 3 3 3 4 4 4 5 5 5 5 6 6 6 7 7 7 7 6 5 5 6 6 6 7 7 7 6 6 6 6 6 5 5 5 5 5 5 4
5 4 4 4 5 5 5 6 6 5 4 3 3 3 3 3 3 5 5 5 5 5 5 5 5 4 3 1 2 2 3 4 4 3 4 3 3 3 3 2 1 0 0 1 0 2 1 1 2 2 2 3 3 4 4 4 5 4 5 6 6 6 7 7 7 6 5 6 6 6 6 6 5 6 6 6 6 6 5 4 4 4 6 6 5
6 5 5 5 5 6 6 6 5 3 3 2 2 4 3 3 3 3 4 6 5 7 4 4 5 4 2 1 2 3 3 3 4 4 3 3 3 3 3 3 2 2 2 0 0 1 3 2 2 1 1 2 3 3 3 3 3 4 4 4 4 6 6 6 6 6 6 6 5 5 5 6 6 6 5 6 6 5 5 5 4 5 5 5 5
6 5 5 5 5 5 6 5 4 3 3 2 2 3 3 3 4 3 3 5 6 7 6 4 4 4 2 3 3 3 3 4 4 4 3 3 3 3 3 4 4 4 3 1 1 1 2 3 3 2 1 0 1 2 2 2 2 3 3 3 4 4 5 6 5 5 5 5 5 5 6 6 6 5 6 5 5 4 4 4 3 3 4 5 5
6 5 5 5 5 6 6 5 3 3 3 2 3 3 3 3 5 4 4 4 5 6 7 5 4 3 2 2 3 3 3 3 3 4 3 4 4 4 3 3 4 4 4 4 4 2 1 3 4 3 3 2 1 1 1 2 1 1 2 3 3 4 5 5 5 4 4 4 5 5 5 6 6 6 5 5 4 3 3 3 4 4 4 3 4
6 5 5 5 6 6 5 4 3 3 3 3 3 3 4 4 4 5 3 4 5 6 6 6 2 1 1 1 2 3 3 2 2 3 3 4 4 4 3 4 4 4 5 4 4 4 2 2 2 2 2 3 2 2 1 1 1 1 1 2 2 3 4 4 4 3 2 3 4 5 4 4 4 4 4 4 4 4 4 4 3 4 4 3 3
6 6 6 6 6 5 4 3 3 3 3 4 4 3 5 5 5 5 7 5 5 5 4 2 3 2 1 2 2 2 3 3 3 3 3 4 4 3 4 3 4 4 5 4 4 5 4 2 3 3 2 3 4 3 3 2 2 1 1 1 1 2 2 4 3 4 3 3 4 4 4 4 4 4 4 3 3 3 2 2 2 2 2 2 2
6 6 6 6 6 5 4 4 3 3 4 5 5 5 5 5 3 2 4 5 4 5 4 3 3 1 1 3 2 1 2 4 4 4 4 4 3 4 4 4 4 5 5 4 4 4 5 3 3 2 3 2 2 4 4 4 3 2 1 1 1 1 1 2 3 3 2 3 3 3 2 3 3 2 2 2 2 1 1 1 1 1 1 1 1
6 6 6 6 5 4 4 4 3 4 4 5 5 5 5 4 3 3 4 4 4 0 1 2 2 1 1 3 3 3 0 1 2 3 4 4 4 4 4 5 5 5 5 6 5 6 6 4 3 3 3 3 3 2 3 3 2 3 3 2 2 1 0 1 1 2 1 2 2 2 2 3 2 2 2 2 2 1 0 1 1 1 1 1 0
6 5 5 5 5 4 5 4 4 4 4 5 5 6 5 5 5 4 3 3 3 1 1 1 1 1 2 2 2 4 3 2 1 4 4 5 4 5 5 5 6 5 6 6 6 6 6 5 4 4 4 4 3 3 3 4 4 5 4 4 3 3 2 2 1 2 1 1 2 2 2 2 2 3 3 3 3 2 2 2 2 2 3 3 3
6 6 5 5 5 5 4 4 5 4 4 5 5 5 4 4 4 5 3 3 1 1 1 3 3 4 1 0 2 1 3 2 3 5 1 3 5 5 4 5 5 4 5 7 7 7 6 7 7 5 5 5 4 4 4 3 5 7 6 6 5 5 5 4 3 3 3 2 2 3 2 2 2 1 1 2 3 3 4 3 3 4 5 5 5
6 6 6 6 5 5 5 5 5 4 4 4 5 6 5 4 5 4 5 3 3 2 2 1 2 2 4 3 1 1 3 4 2 5 1 2 4 5 4 4 4 4 4 6 6 7 7 7 7 6 6 5 5 4 4 4 4 5 6 7 8 7 6 6 5 5 5 4 4 4 4 3 3 2 2 2 3 4 4 4 4 5 6 6 6
5 6 6 5 6 6 5 5 5 4 4 5 5 4 4 4 5 6 6 5 3 3 2 2 3 2 4 3 3 2 2 2 1 3 4 3 2 3 4 5 4 5 5 5 6 7 7 7 8 8 8 7 5 5 5 5 5 4 4 5 9 9 8 8 8 7 7 6 6 5 5 4 4 3 3 3 3 3 3 3 4 5 6 6 6
6 6 6 6 5 6 6 6 6 5 4 4 5 5 5 5 3 4 6 4 4 3 4 4 1 2 3 2 2 1 3 4 2 1 3 3 2 2 3 4 5 5 6 6 6 5 6 7 8 9 8 8 7 6 5 6 7 7 9 9 10 10 10 10 10 9 8 7 7 6 6 6 5 5 4 4 3 3 4 4 4 3 4 4 5
6 6 6 6 6 6 6 5 5 5 4 5 6 6 4 2 4 4 4 5 5 4 4 3 2 2 1 3 3 1 2 2 3 3 2 1 4 2 2 3 4 6 6 7 6 7 6 6 7 6 7 8 8 6 6 6 6 6 7 12 12 12 12 11 11 11 10 9 8 8 7 7 6 6 6 5 5 4 5 4 5 5 5 4 4
6 7 7 7 6 6 6 6 5 5 4 5 5 5 5 5 4 3 5 4 4 4 2 4 4 5 3 1 1 2 0 1 1 1 2 3 4 2 4 2 2 5 6 6 6 5 6 6 6 6 6 8 9 8 7 6 6 6 7 12 13 13 13 12 13 13 12 11 10 10 9 8 7 7 7 6 6 6 6 6 6 6 6 6 6
6 7 7 7 7 6 6 7 7 5 4 5 5 5 4 5 5 6 5 4 4 4 5 4 5 4 4 4 3 2 2 2 1 1 1 0 3 3 2 3 4 4 2 4 5 5 6 5 6 7 6 6 7 9 9 7 6 6 8 13 14 14 14 14 14 13 13 12 12 11 10 10 9 9 9 8 8 8 8 8 8 7 7 6 7
4 5 6 6 6 5 5 6 5 5 5 5 5 5 5 4 4 5 5 5 4 5 4 4 3 4 4 5 6 5 5 5 4 4 3 2 0 3 4 3 3 4 3 2 3 5 6 5 6 7 6 6 6 7 9 10 10 9 13 14 14 14 14 15 15 15 14 14 13 12 12 12 11 11 11 10 10 10 10 10 10 9 8 8 8
4 4 5 5 5 5 5 5 6 6 6 5 5 5 5 4 4 4 5 4 3 3 3 4 4 4 4 4 5 4 4 5 4 5 5 4 4 4 4 2 2 4 4 4 4 4 4 6 7 7 6 6 6 6 6 7 10 15 12 14 15 15 15 16 16 16 16 16 15 14 14 13 13 13 12 12 12 11 11 11 10 10 10 9 9
5 5 5 6 5 6 6 6 6 6 5 5 5 6 5 5 5 5 4 4 4 4 4 5 5 5 6 4 3 3 5 4 3 3 3 3 4 3 2 2 4 3 2 1 3 2 5 5 5 5 6 6 6 6 7 7 7 11 15 10 16 15 16 17 17 17 17 17 16 15 15 15 14 14 14 13 13 13 12 12 11 11 11 10 10
6 7 7 6 6 7 7 7 6 6 6 6 6 6 6 5 5 5 5 5 3 5 5 5 4 6 4 4 4 5 4 3 4 3 3 3 3 4 4 2 1 3 2 2 1 2 2 3 4 5 5 7 6 6 7 7 7 12 16 11 12 16 16 16 17 17 17 17 17 17 17 16 16 16 15 15 14 14 13 13 12 12 11 11 10
7 7 6 7 7 6 8 7 7 7 6 6 6 6 6 5 5 6 5 5 5 4 5 5 5 6 5 5 5 4 4 3 3 5 3 4 4 4 4 4 3 2 3 2 2 4 6 3 2 4 6 5 6 7 7 7 9 11 13 11 8 14 15 16 16 16 17 18 18 18 18 18 17 17 16 16 16 15 15 14 13 13 13 13 12
6 6 7 7 7 7 7 7 7 7 7 7 7 6 6 6 6 5 6 3 5 6 6 5 5 6 6 5 4 4 4 3 4 4 4 4 4 3 4 4 4 5 2 3 2 4 2 3 2 5 5 5 5 6 6 8 7 11 13 9 7 8 14 16 16 16 17 18 18 18 19 19 18 18 18 17 17 17 16 16 15 15 14 14 13
6 6 6 7 7 7 7 7 7 7 7 7 7 7 6 6 6 6 6 5 5 7 6 6 6 5 4 5 5 4 4 4 3 4 5 4 4 4 5 6 5 4 3 3 4 4 2 3 2 3 2 3 3 3 5 7 7 7 8 8 8 7 11 16 16 16 16 16 16 16 17 19 19 20 19 19 18 18 18 18 17 17 17 16 15
6 6 7 7 7 8 7 8 7 6 7 6 6 6 5 4 5 5 5 4 5 5 5 5 6 4 5 4 4 4 4 3 4 4 4 5 4 4 5 5 5 6 5 5 6 3 4 2 3 4 2 2 2 3 5 6 9 9 8 8 8 9 12 13 15 16 16 16 16 16 17 19 20 20 20 19 19 19 20 20 19 18 18 18 17
7 6 6 6 6 7 7 7 6 7 6 6 7 6 6 6 6 5 5 5 5 6 6 5 5 5 5 6 4 5 4 4 4 4 4 4 5 4 4 3 5 6 6 5 4 3 3 4 3 4 3 4 2 3 4 6 7 8 7 6 8 11 11 10 13 14 15 16 17 17 17 19 20 20 19 19 20 20 20 20 20 19 19 19 18
7 7 6 6 7 8 7 8 8 8 8 8 7 6 5 5 5 5 4 5 6 7 6 5 4 5 6 6 6 5 5 4 4 4 4 4 4 4 4 4 5 5 5 5 6 8 3 4 5 5 4 5 5 5 5 5 4 6 6 6 7 8 6 6 10 14 15 16 17 17 18 18 19 20 20 20 21 20 20 20 19 19 19 19 19
5 6 7 8 8 8 9 8 9 8 8 8 7 7 6 6 6 6 6 5 6 6 6 7 6 6 6 7 7 7 5 5 5 4 4 5 4 4 3 3 4 4 5 5 5 7 4 2 3 4 2 2 3 3 5 5 4 2 4 5 5 5 6 5 6 10 14 15 16 17 18 18 19 20 20 20 18 19 18 18 18 18 19 20 20
5 6 8 8 7 8 7 8 8 9 8 8 7 6 6 7 6 4 5 6 6 8 6 8 8 6 6 7 7 6 5 6 5 5 5 5 4 3 3 3 3 4 4 5 6 4 6 2 3 2 3 2 3 2 3 4 4 3 5 5 4 5 5 5 6 6 12 14 15 16 17 17 18 19 20 13 15 14 15 16 16 17 17 18 18
5 7 8 7 6 6 6 6 8 7 6 3 4 6 7 9 12 11 11 10 7 7 7 9 9 7 6 6 7 6 4 5 6 5 5 5 4 4 4 1 2 4 4 4 4 4 5 5 3 3 3 2 3 3 3 3 3 3 4 5 5 4 4 5 5 5 8 10 12 13 14 15 16 17 17 12 10 12 12 16 16 17 17 17 18
6 5 4 2 3 6 9 10 11 10 12 10 4 1 4 6 5 5 4 6 9 13 13 12 11 10 10 8 6 6 5 6 6 5 4 5 2 2 4 3 3 3 4 4 5 4 3 6 3 4 3 3 4 4 3 3 4 4 4 4 3 4 4 4 5 5 5 6 9 11 12 14 16 16 16 9 14 19 17 18 19 19 18 17 18
3 1 4 6 8 7 3 5 3 4 4 2 3 3 2 3 4 4 5 4 4 5 6 4 4 7 11 12 11 8 5 6 6 5 5 3 4 4 4 3 5 5 2 1 2 3 5 8 7 4 3 3 4 4 3 4 3 3 3 4 4 3 4 5 5 4 5 6 9 11 12 14 15 16 15 11 19 21 20 21 20 19 19 17 18
1 6 9 7 5 4 4 4 5 3 4 6 5 3 2 3 3 3 3 3 4 5 3 2 4 5 7 10 10 11 8 7 7 6 2 6 5 5 6 5 3 2 4 5 4 6 6 8 7 7 4 6 5 5 2 1 2 4 5 4 2 2 3 3 3 3 3 3 4 5 8 11 14 15 15 14 19 21 21 21 20 19 19 18 18
8 10 6 3 2 2 3 5 6 8 7 4 2 2 3 3 3 3 3 3 3 3 1 2 3 3 5 6 5 6 6 8 11 8 2 4 5 6 3 2 3 4 5 6 6 6 6 7 6 6 6 4 3 6 1 0 2 3 5 6 6 1 1 2 4 2 2 4 7 9 9 8 9 8 12 16 17 19 19 19 19 21 20 19 18
11 7 4 8 5 2 3 5 3 1 1 2 3 3 2 3 3 3 3 3 3 3 2 4 4 5 4 4 5 4 4 6 6 7 7 5 2 4 3 5 6 6 5 5 4 5 6 6 7 6 5 4 3 4 3 3 4 2 3 3 4 4 4 1 2 5 4 4 5 4 6 8 9 11 11 11 15 17 18 17 18 18 20 19 21
7 6 5 1 2 0 3 3 4 6 4 3 3 2 4 3 2 2 3 3 2 3 4 4 5 5 6 5 6 6 6 9 11 8 6 2 2 5 9 7 4 3 5 5 6 6 7 7 8 7 6 6 7 6 6 5 5 5 1 1 5 5 5 6 4 4 5 6 5 4 4 4 5 5 6 7 8 12 13 17 14 18 20 19 21
6 5 3 3 3 3 3 5 5 3 4 3 4 7 6 3 2 3 3 3 3 4 5 6 7 6 6 5 5 8 10 12 11 10 5 9 11 8 5 1 3 6 7 8 7 6 7 8 8 7 7 8 7 6 7 5 3 2 4 4 7 6 5 7 6 4 3 4 4 5 4 3 4 6 6 7 6 6 7 7 11 11 14 18 20
5 5 5 6 6 5 5 3 4 3 2 1 2 2 1 3 3 3 2 2 3 4 5 6 7 7 6 5 4 5 6 6 4 4 7 4 3 13 16 14 10 8 8 9 6 6 7 7 5 6 7 8 8 6 7 6 5 5 5 5 6 6 5 6 8 3 2 3 4 4 4 3 3 6 6 7 7 5 7 9 11 13 16 15 16
2 2 3 3 4 5 5 4 3 3 3 4 2 2 1 2 5 3 2 3 4 5 6 7 6 6 6 6 4 2 2 5 3 3 4 6 7 8 9 8 6 9 8 7 6 6 8 8 7 6 6 7 6 5 6 3 4 4 5 5 5 5 6 6 5 6 2 0 4 6 7 4 3 6 6 6 6 6 7 9 12 13 15 16 17
6 4 2 1 2 3 4 4 3 1 2 3 3 3 3 3 4 7 4 5 5 5 5 5 5 5 5 5 4 2 2 7 2 3 3 4 8 11 10 6 8 9 7 7 8 7 5 5 5 7 7 6 7 6 4 4 3 6 5 5 4 5 6 8 6 4 4 1 4 6 8 3 1 6 7 6 6 6 7 10 14 13 13 14 15
5 5 4 3 3 4 4 2 1 1 2 3 3 1 4 6 5 5 2 2 4 3 3 4 5 4 3 4 4 3 2 5 2 3 4 4 6 7 6 2 3 6 7 6 8 10 8 6 6 7 6 6 7 6 5 5 6 6 5 5 5 6 6 6 6 6 5 2 6 8 10 6 3 5 7 5 5 7 7 8 11 12 13 13 14
4 4 5 4 3 3 3 2 2 2 1 2 3 3 3 5 7 3 2 2 2 3 4 4 5 5 5 4 3 2 2 7 5 5 5 5 6 7 7 6 4 4 5 4 4 4 4 4 4 5 5 5 5 4 3 3 3 4 4 7 7 8 8 7 6 5 6 5 7 5 6 5 4 6 7 6 6 7 7 8 11 12 12 12 12
4 4 3 2 3 3 3 4 3 1 2 2 4 2 5 3 3 2 2 2 2 3 4 4 3 3 2 2 1 2 3 5 6 8 5 4 4 5 6 5 3 1 2 3 5 4 3 1 1 2 3 4 4 5 5 4 4 4 4 4 4 4 6 7 7 5 5 1 3 4 4 4 3 5 6 5 5 7 6 6 7 9 10 10 10
5 4 4 4 4 4 4 2 1 1 2 4 4 5 3 2 2 2 2 1 1 2 2 3 3 4 3 2 3 3 2 2 3 2 3 3 3 4 4 3 2 1 1 2 4 4 4 4 3 3 5 7 7 7 7 6 5 3 2 3 5 4 4 7 6 4 3 2 2 3 2 4 2 3 5 5 5 6 6 5 3 3 4 3 4
6 5 5 3 2 2 3 3 4 2 2 4 4 5 3 1 2 2 1 2 3 3 4 5 4 4 6 10 7 4 4 3 3 3 2 3 2 1 1 3 4 1 1 2 2 2 4 4 3 4 6 5 4 5 4 5 2 4 3 3 3 2 5 6 4 2 3 1 2 4 4 3 4 3 5 5 5 4 3 1 2 2 2 2 3
3 2 2 3 3 3 3 3 5 3 4 4 5 5 6 4 2 2 3 3 4 4 4 4 4 4 4 5 8 6 4 3 4 5 5 3 2 2 1 2 4 4 1 2 3 4 4 4 3 4 2 3 3 2 3 6 4 2 2 4 5 5 5 4 3 3 4 0 1 4 5 4 5 4 5 7 4 3 1 1 2 2 2 4 5
Wind_Direction
246 243 208 255 268 289 299 303 309 302 305 299 299 305 304 304 304 302 303 304 302 301 311 307 341 149 194 229 217 187 152 130 125 121 113 109 110 100 95 88 93 90 83 79 76 80 82 83 79 87 87 74 72 63 57 52 45 43 42 45 50 54 61 64 64 70 71 73 86 100 110 119 130 135 133 132 125 122 117 109 113 84 100 129 149
239 229 231 263 284 297 299 304 305 300 296 293 298 299 299 303 301 299 302 307 302 301 311 306 318 350 196 221 214 175 153 145 133 130 124 118 112 108 108 103 95 88 85 80 84 95 100 98 97 92 80 79 71 62 57 54 48 44 41 48 47 50 53 57 61 66 68 76 85 89 101 116 121 125 126 123 127 120 107 102 96 104 110 114 113
237 234 235 261 284 292 296 300 296 289 288 287 288 289 292 283 291 295 304 305 296 297 301 301 302 333 223 221 209 161 159 156 138 136 132 134 126 111 109 119 103 102 92 91 94 94 96 95 95 83 79 75 65 58 56 54 53 47 36 49 48 48 52 51 54 62 75 85 90 94 102 110 115 117 121 122 120 115 108 90 83 83 95 101 105
224 236 236 250 272 287 293 294 291 290 282 279 285 285 279 278 281 283 286 286 290 295 296 285 292 306 264 249 195 179 164 166 150 141 136 141 134 110 71 25 124 101 103 95 92 92 81 84 85 79 80 70 60 57 49 46 50 41 31 52 43 48 58 59 65 75 81 89 95 97 98 108 113 114 112 114 107 103 102 96 82 78 81 84 90
221 226 245 239 260 273 286 288 290 290 283 281 283 281 281 286 290 287 284 277 287 293 298 274 276 300 260 240 189 191 175 163 153 149 147 149 152 124 95 51 35 137 125 123 97 78 74 71 70 66 67 60 60 51 45 41 38 27 26 50 49 48 59 62 68 74 86 98 102 102 104 103 109 112 109 109 104 98 91 82 76 72 73 78 76
220 220 224 245 259 257 269 278 279 278 273 270 270 274 278 287 293 307 303 307 303 299 311 310 302 275 273 260 184 195 178 163 168 161 147 154 160 147 123 138 5 10 10 140 123 79 74 60 51 56 53 53 54 48 45 45 37 27 25 38 53 44 53 69 69 80 92 100 103 104 105 104 105 111 111 96 94 95 93 88 78 68 63 67 71
215 219 219 231 250 259 255 264 271 269 267 241 251 265 264 276 289 297 307 300 290 292 294 289 298 293 308 345 196 193 183 171 168 163 155 157 169 171 164 181 205 296 314 332 188 148 129 91 76 54 42 42 37 40 43 43 40 28 21 32 50 48 51 67 76 79 87 96 104 104 103 109 110 103 96 90 84 80 73 70 75 71 67 61 60
221 207 226 231 240 255 258 263 262 250 246 233 235 260 265 266 257 262 307 298 309 301 303 284 277 284 312 167 175 199 186 180 172 167 161 156 178 181 180 188 204 198 217 236 56 214 166 172 137 115 52 19 34 28 32 31 42 22 23 29 38 54 50 60 82 88 89 88 89 95 100 95 94 94 94 91 84 79 71 65 61 67 68 59 50
221 211 220 232 238 246 258 258 250 233 244 242 237 249 253 267 261 238 213 274 296 295 300 293 274 260 219 183 178 190 194 193 177 162 156 170 178 192 186 201 212 214 200 188 226 272 220 180 175 170 198 330 359 19 358 35 21 28 25 27 35 50 60 60 65 91 96 100 102 95 92 93 94 94 90 85 82 80 78 74 84 85 72 66 61
220 216 216 229 241 247 259 257 236 234 245 249 246 234 240 242 272 254 223 235 275 284 289 301 287 288 254 164 162 179 202 198 170 166 166 177 190 199 195 197 210 218 213 207 207 220 227 199 187 190 202 219 204 313 344 329 359 12 34 33 33 35 60 52 66 76 99 114 112 109 107 100 98 95 95 93 91 89 79 62 45 44 53 58 56
218 213 218 231 239 244 252 240 233 239 248 258 254 236 238 232 245 277 254 230 256 264 270 280 321 33 25 38 138 168 195 197 181 175 186 194 195 202 192 200 207 215 224 215 210 211 205 208 197 184 202 206 214 220 251 297 326 346 22 44 47 29 62 75 65 72 107 124 124 115 108 109 107 97 97 96 88 74 69 64 57 48 48 41 37
215 210 219 230 235 240 241 239 228 226 248 258 257 226 234 241 250 252 285 290 247 243 227 199 51 41 12 23 32 144 185 196 193 195 189 207 203 199 206 196 205 216 221 219 210 211 209 196 198 196 191 218 213 218 224 234 265 334 334 357 19 58 44 65 66 71 75 101 117 122 125 119 111 113 110 112 107 99 82 80 74 54 42 30 17
223 211 215 228 233 230 229 244 231 232 231 242 241 240 221 216 242 251 265 277 278 189 185 130 128 99 337 35 358 335 208 188 204 195 202 205 198 208 207 207 208 215 220 218 208 212 215 204 208 195 202 208 230 222 221 225 235 259 300 307 336 7 24 79 71 64 79 101 98 102 126 136 135 131 131 126 116 106 104 81 111 115 72 36 38
220 212 219 212 222 226 225 235 226 230 233 240 249 238 236 218 213 271 207 231 259 302 106 130 16 129 52 334 338 329 330 274 199 209 198 199 203 206 199 211 211 217 222 222 218 217 218 210 207 206 207 214 207 215 227 229 239 243 252 258 253 270 276 118 149 113 153 113 100 120 129 142 139 149 159 168 167 159 157 291 235 128 127 125 153
211 210 204 208 212 215 229 224 226 224 246 257 251 251 224 222 190 208 265 220 255 271 169 96 146 75 114 73 354 356 327 341 284 228 201 194 192 201 202 209 215 209 218 222 221 221 219 216 204 206 211 210 210 206 212 218 218 232 235 243 244 246 239 227 193 180 203 142 149 146 163 155 155 164 179 198 175 178 190 173 143 136 131 113 96
203 208 213 211 205 217 228 230 238 215 226 261 262 252 234 228 192 208 201 258 339 298 110 158 145 149 302 204 230 131 344 301 315 289 247 212 195 205 201 214 209 206 207 224 225 223 220 221 214 207 208 209 207 207 209 207 218 225 230 235 240 239 240 235 218 201 218 198 186 184 192 193 171 157 178 184 139 140 133 126 119 119 119 111 110
204 203 209 210 210 214 220 237 240 233 223 237 244 240 233 219 195 187 195 188 224 275 321 63 213 181 133 106 77 354 229 255 6 286 20 226 228 214 210 213 204 209 208 224 224 226 224 221 221 216 211 209 208 207 210 210 213 219 225 230 230 233 235 235 223 218 214 204 201 211 212 207 192 169 167 138 152 143 136 132 131 133 125 125 117
202 206 208 206 210 212 216 227 231 231 225 235 246 255 247 219 197 191 199 208 171 154 202 309 310 264 193 174 170 170 208 233 61 304 313 243 311 229 217 212 212 213 215 222 217 222 218 224 220 221 220 215 210 207 208 208 210 212 214 221 227 228 230 233 232 225 219 214 207 215 208 212 209 195 193 174 167 163 150 159 153 149 143 137 137
208 204 209 211 212 217 217 221 226 220 223 236 252 240 231 215 179 186 207 166 144 166 189 225 352 257 232 207 199 222 153 126 239 107 336 317 263 253 235 220 222 227 228 228 215 213 216 222 224 225 221 221 215 207 206 210 211 215 214 213 221 227 228 230 232 228 225 219 215 216 217 218 209 213 208 203 194 190 188 183 177 181 165 157 142
212 210 208 208 212 218 217 220 226 221 206 218 229 238 232 230 190 215 182 175 174 169 207 195 187 255 190 189 210 174 184 284 175 197 174 251 309 303 239 241 225 233 234 236 218 217 211 216 218 216 223 222 220 209 207 205 208 211 216 216 216 222 228 229 230 229 226 222 216 218 220 222 217 221 217 219 218 207 207 209 211 203 195 182 176
212 214 212 210 210 214 211 216 220 225 216 219 234 231 212 181 177 172 199 208 195 184 155 206 181 219 174 250 117 144 76 331 242 127 147 160 265 272 300 324 254 244 239 237 234 222 217 214 219 217 213 223 222 218 209 205 208 210 218 217 216 218 223 227 229 229 228 224 220 220 221 221 225 224 229 217 219 220 219 219 219 220 216 205 205
213 217 219 215 217 213 208 210 218 224 220 218 228 232 224 201 198 200 209 210 223 193 197 208 208 219 208 174 149 114 58 82 119 141 24 139 233 273 265 308 329 302 219 232 232 227 226 219 220 223 218 214 214 221 219 213 210 211 217 217 217 217 219 224 226 228 227 226 222 220 222 221 223 226 228 226 220 223 225 226 223 222 221 215 215
205 215 219 218 219 217 215 214 214 220 224 215 220 219 218 211 210 198 201 203 202 208 228 217 212 208 195 185 183 183 179 186 193 203 179 172 344 272 270 213 237 285 283 207 233 223 217 214 220 223 216 214 209 214 220 222 221 215 216 215 216 215 218 221 223 225 226 225 223 220 220 223 222 224 225 224 224 226 227 226 230 227 222 228 224
210 211 220 220 222 226 223 220 219 216 222 215 219 223 224 200 184 199 212 214 209 193 202 205 204 211 209 201 206 196 190 196 204 169 174 199 186 241 260 275 263 219 271 291 232 216 210 219 223 226 217 217 213 207 210 215 224 222 216 217 214 214 215 218 220 222 223 223 221 220 219 221 222 223 223 224 221 223 226 232 232 237 232 222 224
208 208 219 213 216 227 226 223 228 223 222 218 226 224 220 212 203 208 207 202 209 200 192 215 197 195 211 211 219 207 214 219 170 176 195 158 178 217 277 196 246 284 279 291 301 264 210 219 218 220 220 217 214 206 212 215 216 218 218 212 212 213 214 216 218 220 221 222 221 220 219 219 221 221 221 222 221 221 222 226 231 229 232 237 231
200 208 212 202 207 217 219 221 222 224 219 218 221 222 213 213 216 215 219 226 214 212 221 224 207 225 213 200 207 211 225 193 194 177 176 151 180 213 243 275 230 260 284 286 309 301 302 226 217 211 214 218 215 206 211 214 220 219 217 221 214 217 217 218 218 219 220 222 222 222 221 221 221 220 219 219 219 221 223 223 224 221 219 225 227
209 216 205 201 207 213 216 219 220 220 220 220 217 217 216 216 216 225 229 220 220 213 226 210 212 214 214 214 214 215 222 206 187 206 189 200 199 194 175 256 289 269 273 295 306 227 242 297 214 209 214 212 212 209 209 212 221 214 214 221 224 218 220 220 221 220 221 221 222 223 222 222 223 221 219 219 217 219 221 223 223 222 220 222 218
217 214 210 199 206 212 214 221 222 219 218 220 219 214 209 207 215 212 230 211 215 214 224 210 223 216 213 207 204 225 215 209 203 207 201 194 196 175 183 183 225 280 302 279 280 271 240 239 294 226 219 215 220 218 210 214 224 214 210 219 221 220 219 220 220 220 220 221 222 223 223 223 224 223 221 220 220 218 219 220 222 223 225 226 219
217 215 216 208 211 212 216 223 225 224 223 222 218 220 213 209 210 213 224 223 220 222 218 215 224 212 209 199 204 217 222 209 213 214 206 197 195 190 182 193 186 220 274 276 257 252 295 194 248 303 211 237 235 231 224 227 227 206 212 217 221 222 216 215 217 219 220 221 222 223 223 224 224 224 223 221 221 220 219 219 220 222 224 224 221
214 218 218 215 215 215 217 225 227 223 225 223 219 221 205 215 218 222 228 219 226 236 229 222 225 213 218 216 204 217 215 200 212 212 207 204 200 202 197 195 170 199 207 249 271 220 261 276 213 263 312 266 229 228 227 235 231 215 217 214 219 225 220 214 216 218 219 220 221 222 222 223 225 225 224 222 221 220 220 220 221 226 224 222 219
215 219 217 219 217 219 217 221 219 220 216 216 214 214 205 216 214 219 214 203 219 234 234 222 230 217 222 227 218 231 221 218 214 215 214 201 214 212 213 168 185 196 198 200 257 258 190 257 256 233 254 296 270 256 240 234 233 221 226 220 225 231 225 220 218 218 218 220 221 222 223 224 226 227 224 224 222 220 221 221 223 224 221 222 220
210 212 216 219 216 216 211 216 216 214 212 216 207 212 203 221 225 226 220 195 210 229 240 227 231 221 219 228 225 225 222 232 239 232 219 215 211 214 200 184 188 194 173 184 223 258 215 238 264 286 278 277 282 270 266 266 247 219 236 234 240 244 233 234 220 220 219 220 222 223 224 226 227 228 224 221 223 222 221 222 223 222 221 222 222
200 202 216 222 221 215 215 213 213 210 209 212 205 202 202 218 222 226 231 205 214 231 231 240 227 226 222 225 226 225 217 223 226 235 239 232 218 215 192 176 192 185 185 200 232 261 278 255 269 264 292 288 282 233 265 275 285 252 234 241 242 235 237 232 232 225 224 224 225 224 226 227 229 230 229 224 224 228 228 228 226 227 224 223 224
196 208 218 223 222 219 214 216 216 213 214 216 204 194 206 218 224 229 228 223 233 246 244 248 242 222 219 218 226 229 207 222 231 236 236 245 233 216 195 190 203 212 200 196 223 249 271 274 258 246 265 219 255 233 241 262 265 248 244 237 226 223 227 226 227 228 220 226 227 229 230 231 233 235 234 227 234 237 242 245 242 235 231 229 227
195 211 223 225 226 221 219 222 224 224 228 252 345 359 1 7 359 347 331 314 305 293 271 258 251 249 234 224 231 229 216 226 231 238 234 239 231 221 215 202 355 348 341 305 296 266 257 258 243 259 240 237 234 250 231 238 260 261 261 249 237 227 224 226 236 241 229 230 236 238 239 240 242 245 244 225 246 253 244 237 235 238 233 227 227
209 220 236 285 338 1 4 360 356 1 28 36 10 206 153 149 182 232 286 323 324 314 314 317 325 321 299 290 269 235 223 227 234 233 225 222 235 51 75 134 169 206 193 183 196 227 264 282 252 236 224 251 257 245 253 264 267 261 248 271 268 257 253 239 241 253 242 223 232 237 237 237 240 243 246 191 216 231 234 238 234 232 231 225 226
208 68 48 36 68 96 174 188 163 120 136 173 232 252 204 171 181 189 190 184 198 243 261 273 327 317 305 287 279 274 243 226 236 233 228 129 126 153 156 176 192 216 236 247 263 247 260 264 270 250 240 245 245 261 237 263 264 244 233 242 257 262 270 265 263 255 262 239 236 237 234 236 237 238 239 191 211 227 229 233 231 229 230 227 226
41 46 45 54 83 146 179 121 133 158 194 208 204 187 180 174 171 193 205 195 207 216 205 172 193 223 260 280 293 307 302 278 261 245 171 152 172 176 198 202 210 215 237 238 233 246 242 253 256 273 248 247 259 255 260 206 279 296 300 287 260 222 251 261 240 239 247 245 247 231 235 237 237 236 235 212 214 224 226 227 229 230 231 229 228
50 61 58 314 243 192 137 143 161 169 185 202 194 220 194 197 191 191 200 203 221 254 138 184 229 211 223 261 277 262 279 297 297 307 340 248 210 220 240 284 268 242 233 228 222 220 227 242 247 243 266 256 246 276 300 271 288 273 289 308 305 308 239 283 300 272 236 246 232 236 247 243 236 233 229 226 226 229 230 231 231 233 234 235 236
88 112 187 232 223 155 154 162 148 101 80 189 176 194 247 249 256 263 271 259 252 257 236 242 242 249 232 191 233 258 239 237 250 258 239 243 24 18 342 240 223 223 236 241 229 228 230 236 242 249 235 269 266 241 281 300 298 254 197 241 277 300 311 272 256 290 282 258 268 258 234 244 249 243 243 233 231 236 239 240 239 238 237 234 239
124 152 197 301 57 205 275 251 152 164 188 249 302 254 248 244 212 278 239 228 215 239 252 253 242 251 255 234 214 211 226 248 258 262 247 160 159 215 232 230 238 252 263 255 237 230 238 243 254 252 262 266 261 280 286 271 254 273 54 301 288 285 287 293 272 237 252 271 273 264 266 255 259 254 255 254 240 229 237 236 242 241 240 238 239
135 172 175 175 172 194 250 274 264 168 148 178 221 241 248 246 189 217 205 189 202 218 233 254 265 260 261 258 257 272 291 302 315 335 305 191 199 225 248 161 223 229 231 240 243 246 249 250 249 257 266 267 270 262 269 261 270 282 283 285 290 294 283 286 284 252 231 242 254 272 252 247 246 266 256 260 261 230 240 227 235 232 232 233 238
145 184 209 217 213 192 201 242 290 312 301 216 266 128 215 262 230 213 223 220 239 247 252 260 267 267 266 262 272 290 291 301 311 302 266 304 268 232 235 234 225 219 224 244 240 229 241 245 254 254 252 264 268 268 267 292 300 284 290 286 283 292 297 305 306 293 219 236 252 270 280 248 228 263 273 266 267 248 252 252 235 229 235 236 236
112 191 196 210 203 190 177 182 236 285 319 302 116 224 241 3 353 325 293 283 273 263 266 272 275 288 293 294 287 294 281 288 262 253 323 337 286 261 257 257 260 263 262 246 247 244 246 250 252 251 256 257 271 275 289 261 248 268 276 269 270 275 282 281 274 288 290 251 291 290 282 267 239 260 270 269 265 256 243 241 232 228 230 235 238
153 170 186 157 170 149 150 162 197 234 265 218 156 257 314 23 340 319 290 268 263 263 275 283 286 290 301 313 335 335 325 287 293 60 19 306 290 269 265 275 272 260 252 245 249 250 272 267 263 269 259 274 284 288 293 295 307 297 297 295 291 281 277 280 274 289 309 8 294 286 288 286 260 289 288 274 270 262 251 237 239 239 233 234 239
139 134 145 167 176 178 170 158 167 203 212 159 159 301 354 356 304 267 241 239 248 254 257 262 264 265 281 311 325 351 94 275 281 143 173 254 272 270 275 280 265 278 281 261 256 256 252 253 262 270 279 283 282 290 311 334 328 328 332 324 335 323 312 300 312 299 288 193 269 294 292 293 264 282 288 291 285 282 269 258 246 242 241 240 240
150 159 166 173 194 177 149 140 194 224 214 22 280 31 36 246 239 215 220 254 284 293 290 283 286 293 306 312 314 308 242 270 264 247 206 214 248 271 287 295 295 296 300 303 303 308 316 315 273 280 308 334 335 336 324 308 290 270 271 289 295 290 287 291 291 268 271 249 262 275 285 295 282 290 294 296 295 292 285 265 248 245 245 246 246
153 159 158 159 169 172 182 183 193 146 221 314 34 94 205 183 157 151 223 225 236 246 261 292 308 312 316 307 245 259 209 239 264 261 255 208 247 279 289 293 299 320 306 355 24 22 33 45 321 277 275 274 268 266 260 252 258 272 301 309 303 281 292 295 294 306 295 352 357 273 272 305 320 296 310 303 287 283 271 270 259 245 248 251 253
158 175 185 187 201 190 189 197 169 196 291 61 132 163 114 128 140 151 203 189 19 26 18 2 351 21 18 10 45 17 353 344 313 213 249 280 292 288 301 349 69 68 330 24 32 36 3 333 290 259 250 251 259 263 269 255 243 262 265 295 291 287 286 292 289 291 299 102 49 16 307 291 305 324 295 283 282 280 270 277 315 22 11 309 272
165 185 182 172 219 235 219 215 207 183 149 129 145 100 78 31 122 132 85 56 52 33 15 18 15 26 27 23 51 36 29 48 99 107 209 119 114 84 348 343 322 315 274 346 343 331 318 312 296 298 287 290 286 289 281 295 297 200 205 274 305 280 295 290 305 353 299 82 43 344 313 268 320 315 312 293 276 246 255 312 357 349 349 314 246
135 150 150 149 161 196 219 217 223 168 129 104 101 89 66 30 71 69 60 57 55 36 15 15 12 17 10 10 30 45 45 66 51 49 43 83 139 120 356 310 299 293 276 336 346 345 344 345 341 357 12 14 16 357 344 338 33 152 245 299 319 307 311 327 331 319 320 72 34 349 324 324 340 344 1 328 307 310 8 337 328 307 319 343 345